EW3163 Weather Reports


Display with metric or nautical units.
time (UTC)temp
F
wind
direction
speed
MPH
gust
MPH
rain 1hr
in
rain 24hr
in
rain mn
in
humidity
%
barometer
mb
20260904181533 62 304 0.0 4.0 0.00 0.02 0.01 72 1009.5
20260904180027 63 20 0.0 1.0 0.00 0.02 0.01 68 1009.4
20260904174523 63 13 0.0 2.0 0.00 0.02 0.01 67 1009.3
20260904173034 64 30 0.0 8.0 0.00 0.02 0.01 64 1008.9
20260904171516 64 321 0.0 4.0 0.00 0.02 0.01 61 1008.8
20260904170015 65 305 0.0 3.0 0.00 0.02 0.01 59 1008.5
20260904164507 65 13 0.0 5.0 0.00 0.02 0.01 58 1008.5
20260904163100 66 15 1.0 10.0 0.00 0.02 0.01 57 1008.5
20260904161618 66 319 1.0 8.0 0.00 0.02 0.01 57 1008.2
20260904160052 66 132 1.0 10.0 0.00 0.02 0.01 56 1008.0
20260904154549 66 119 0.0 7.0 0.00 0.02 0.01 57 1007.7
20260904153050 66 11 1.0 11.0 0.00 0.02 0.01 59 1007.7
20260904151538 65 1 0.0 7.0 0.00 0.02 0.01 61 1007.6
20260904150036 66 21 0.0 8.0 0.00 0.02 0.01 59 1007.3
20260904144529 66 294 0.0 8.0 0.00 0.02 0.01 57 1007.0
20260904143024 66 358 1.0 6.0 0.00 0.02 0.01 55 1006.6
20260904141531 67 35 2.0 10.0 0.00 0.02 0.01 53 1006.1
20260904140035 67 293 1.0 7.0 0.00 0.02 0.01 53 1005.9
20260904134512 67 113 0.0 9.0 0.00 0.02 0.01 53 1005.5
20260904133009 67 324 0.0 8.0 0.00 0.02 0.01 59 1005.3
20260904131502 66 16 2.0 11.0 0.00 0.02 0.01 55 1005.0
20260904130058 66 115 0.0 12.0 0.00 0.02 0.01 59 1005.1
20260904124602 65 74 1.0 10.0 0.00 0.02 0.01 62 1004.6
20260904123049 65 101 0.0 16.0 0.00 0.02 0.01 68 1004.9
20260904121545 65 349 1.0 14.0 0.00 0.02 0.01 65 1004.7
20260904120048 65 306 0.0 5.0 0.00 0.02 0.01 67 1004.7
20260904114541 65 326 1.0 8.0 0.00 0.02 0.01 65 1004.6
20260904113033 65 223 0.0 8.0 0.00 0.02 0.01 65 1004.4
20260904111526 66 41 0.0 7.0 0.00 0.02 0.01 65 1004.3
20260904110021 65 42 0.0 7.0 0.00 0.02 0.01 69 1004.4
20260904104517 63 87 0.0 4.0 0.00 0.02 0.01 73 1004.4
20260904103013 63 99 0.0 5.0 0.00 0.02 0.01 71 1004.1
20260904101507 63 77 0.0 8.0 0.00 0.02 0.01 71 1004.2
20260904100002 63 331 1.0 12.0 0.00 0.02 0.01 68 1003.9
20260904094558 64 27 0.0 7.0 0.00 0.02 0.01 69 1004.0
20260904093054 63 50 1.0 12.0 0.00 0.02 0.01 71 1004.0
20260904091550 62 8 0.0 4.0 0.00 0.02 0.01 73 1004.1
20260904090046 61 85 0.0 1.0 0.00 0.02 0.01 75 1004.1
20260904084541 61 137 0.0 2.0 0.00 0.02 0.01 76 1004.1
20260904083036 60 333 0.0 1.0 0.00 0.02 0.01 76 1003.9
20260904081532 60 30 0.0 2.0 0.00 0.02 0.01 78 1003.9
20260904080027 59 176 0.0 4.0 0.00 0.02 0.01 79 1003.9
20260904074522 59 40 0.0 1.0 0.00 0.02 0.01 81 1003.9
20260904073018 58 34 0.0 2.0 0.00 0.02 0.01 82 1003.6
20260904071516 57 41 0.0 3.0 0.00 0.02 0.01 88 1003.6
20260904070009 58 111 0.0 0.0 0.00 0.02 0.01 94 1003.6
20260904064504 58 111 0.0 0.0 0.00 0.02 0.01 94 1003.4
20260904063126 0 0.0 0.0 0.00 0.02 0.01 1003.2
20260904061556 0 0.0 0.0 0.00 0.02 0.01 1003.3
20260904060107 0 0.0 0.0 0.00 0.02 0.01 1003.2
20260904054551 0 0.0 0.0 0.00 0.02 0.01 1003.2
20260904053044 0 0.0 0.0 0.00 0.02 0.01 1003.1
20260904051542 0 0.0 0.0 0.00 0.02 0.01 1002.9
20260904050042 -90 155 0.0 0.0 0.00 0.02 0.01 95 1003.4
20260904044531 57 151 0.0 0.0 0.00 0.02 0.01 95 1003.4
20260904043030 57 150 0.0 0.0 0.00 0.02 0.01 95 1003.8
20260904041528 57 141 0.0 0.0 0.00 0.02 0.01 95 1003.4
20260904040039 57 141 0.0 0.0 0.00 0.02 0.01 95 1003.7
20260904034527 56 141 0.0 0.0 0.00 0.07 0.01 95 1003.8
20260904033026 56 141 0.0 0.0 0.00 0.07 0.01 95 1003.9
20260904031524 56 141 0.0 0.0 0.00 0.07 0.01 95 1004.6
20260904030023 56 139 0.0 0.0 0.00 0.07 0.01 95 1004.6
20260904024523 56 131 0.0 0.0 0.00 0.13 0.01 95 1004.4
20260904023021 56 131 0.0 0.0 0.00 0.13 0.01 95 1004.9
20260904021532 56 184 0.0 0.0 0.00 0.13 0.01 94 1005.0
20260904020017 57 184 0.0 0.0 0.00 0.13 0.01 94 1005.4
20260904014516 57 184 0.0 0.0 0.00 0.13 0.01 94 1004.9
20260904013015 57 192 0.0 0.0 0.00 0.13 0.01 94 1005.0
20260904011513 57 192 0.0 0.0 0.00 0.13 0.01 94 1005.4
20260904010011 57 193 0.0 0.0 0.00 0.13 0.01 94 1005.6
20260904004513 57 192 0.0 0.0 0.00 0.13 0.01 94 1005.9
20260904003017 57 193 0.0 0.0 0.01 0.13 0.01 94 1006.3
20260904001506 57 193 0.0 0.0 0.01 0.13 0.01 94 1006.7
20260904000005 57 187 0.0 0.0 0.01 0.13 0.01 93 1006.3
20260903234502 57 208 0.0 0.0 0.02 0.13 0.01 93 1006.7
20260903233059 58 83 0.0 0.0 0.01 0.12 0.00 93 1007.1
20260903231604 58 199 0.0 0.0 0.01 0.12 0.00 93 1007.4
20260903230053 58 188 0.0 0.0 0.01 0.12 0.00 93 1007.3
20260903224553 59 168 0.0 0.0 0.00 0.11 0.11 92 1007.3
20260903223050 59 192 0.0 0.0 0.00 0.11 0.11 92 1007.6
20260903221548 59 147 0.0 0.0 0.00 0.11 0.11 91 1007.7
20260903220046 60 139 0.0 0.0 0.00 0.11 0.11 90 1007.7
20260903214545 60 136 0.0 0.0 0.00 0.11 0.11 91 1007.8
20260903213051 60 97 0.0 0.0 0.00 0.11 0.11 91 1008.0
20260903211544 60 190 0.0 0.0 0.00 0.11 0.11 91 1008.1
20260903210043 60 190 0.0 0.0 0.00 0.11 0.11 91 1008.3
20260903204543 60 200 0.0 0.0 0.00 0.11 0.11 91 1008.3
20260903203051 61 116 0.0 0.0 0.00 0.11 0.11 91 1008.5
20260903201540 61 202 0.0 0.0 0.00 0.11 0.11 91 1008.6
20260903200039 61 120 0.0 0.0 0.00 0.11 0.11 91 1008.8
20260903194539 61 120 0.0 0.0 0.00 0.11 0.11 90 1008.9
20260903193038 61 187 0.0 0.0 0.00 0.11 0.11 90 1009.0
20260903191541 62 211 0.0 1.0 0.00 0.11 0.11 89 1009.1
20260903190038 62 48 0.0 7.0 0.00 0.11 0.11 88 1009.2
20260903184536 63 95 0.0 1.0 0.00 0.11 0.11 86 1009.3
20260903183036 63 219 0.0 4.0 0.00 0.11 0.11 85 1009.3